This is the latest recevied weather packets stored in our database for station/object KC1HBM. If no packets are shown the sender has not sent any weather packets the latest 10 day(s).
| Time | Temp. | Humidity | Pressure | Rain* | Wind** | Luminosity | Snow |
|---|---|---|---|---|---|---|---|
| 1777697417 | 4.44° C | 84% | 1009.6 hPa | 0 mm | - | 0 W/m² | - |
| 1777697114 | 4.44° C | 84% | 1009.7 hPa | 0 mm | - | 0 W/m² | - |
| 1777696810 | 4.44° C | 84% | 1009.6 hPa | 0 mm | - | 0 W/m² | - |
| 1777696508 | 4.44° C | 83% | 1009.6 hPa | 0 mm | - | 0 W/m² | - |
| 1777696204 | 4.44° C | 84% | 1009.7 hPa | 0 mm | - | 0 W/m² | - |
| 1777695899 | 4.44° C | 86% | 1009.5 hPa | 0 mm | - | 0 W/m² | - |
| 1777695597 | 4.44° C | 86% | 1009.4 hPa | 0 mm | - | 0 W/m² | - |
| 1777695295 | 5° C | 86% | 1009.3 hPa | 0 mm | - | 0 W/m² | - |
| 1777694991 | 5° C | 83% | 1009.4 hPa | 0 mm | - | 0 W/m² | - |
| 1777694688 | 4.44° C | 81% | 1009.6 hPa | 0 mm | - | 0 W/m² | - |
| 1777694384 | 4.44° C | 79% | 1009.4 hPa | 0 mm | - | 0 W/m² | - |
| 1777694080 | 4.44° C | 79% | 1009.6 hPa | 0 mm | - | 0 W/m² | - |
| 1777693779 | 5° C | 80% | 1009.3 hPa | 0 mm | - | 0 W/m² | - |
| 1777693477 | 5° C | 80% | 1009.5 hPa | 0 mm | - | 0 W/m² | - |
| 1777693175 | 5.56° C | 80% | 1009.4 hPa | 0 mm | - | 0 W/m² | - |
| 1777692872 | 5.56° C | 78% | 1009.6 hPa | 0 mm | - | 0 W/m² | - |
| 1777692568 | 5.56° C | 77% | 1009.6 hPa | 0 mm | - | 0 W/m² | - |
| 1777692265 | 5.56° C | 73% | 1009.3 hPa | 0 mm | - | 0 W/m² | - |
| 1777691962 | 5.56° C | 76% | 1009.2 hPa | 0 mm | - | 0 W/m² | - |
| 1777691661 | 6.11° C | 77% | 1009.4 hPa | 0 mm | - | 0 W/m² | - |
| 1777691359 | 5.56° C | 72% | 1009.4 hPa | 0 mm | - | 0 W/m² | - |
| 1777691057 | 5.56° C | 73% | 1009.4 hPa | 0 mm | - | 0 W/m² | - |
| 1777690755 | 5.56° C | 78% | 1009.1 hPa | 0 mm | - | 0 W/m² | - |
| 1777690451 | 5.56° C | 80% | 1009.2 hPa | 0 mm | - | 0 W/m² | - |
| 1777690149 | 6.11° C | 80% | 1009.2 hPa | 0 mm | - | 0 W/m² | - |
* Rain latest hour (hover to see other rain measurements)
** Current wind speed in m/s (hover to see current wind gust speed)